STARLINK-32185, 60341

Orbit data source: Space-Track

STARLINK-32185, 60341 is a payload satellite owned by SpaceX/Seattle (US) in LEO that was launched on Fri, 02 Aug 2024 UTC via an FALCON 9 launch vehicle from the Air Force Eastern Test Range (AFETR). Payloads include a variety of satellites, spacecraft, and rockets equipped with specific instruments for various scientific and technological missions. These include communications satellites like Starlink; space stations such as the ISS; scientific satellites like the Hubble; Earth observation satellites from companies like Planet Labs, Umbra, and HawkEye 360; GPS; miniature CubeSats for education and research; and military/defense satellites.

Loading next visibility...
STARLINK-32185 details
Identifier
60341, 2024-136N
Orbit
LEO
Last TLE update21 hours ago
Origin
Flag of USSpaceX/Seattle (US)
ManufacturerSpaceX/Seattle
MissionOperational spacecraft
Bus & MotorSTARLINK V2M, Unknown motor
Mass730 kg wet, ~700 kg dry
Launch date (UTC)
2024-08-02 (5 months ago)
Launch vehicle
FALCON 9
Launch site
Air Force Eastern Test Range (AFETR)
Object type
Payload
Rocket body
Debris
Shape & HBRUnknown
Radar Cross SectionLarge (>1 m²)

Expand to show TLE details & history

TLE from 21 hours ago
0 STARLINK-32185
1 60341U 24136N   24356.31926159 -.00003107  00000-0 -92807-4 0  9999
2 60341  53.1601 335.0009 0001551 102.2612 257.8562 15.30198382 21781
Epoch: 2024-12-21T07:39Z
Definitive object data (Epoch: 2024-12-21T07:39:44.201Z)
Latitude-0.00006°
Longitude129.69456°
Altitude476.343 km
Speed7.629 km/s
True Right ascension22h 20m 00s
True Declination0° 00' 00"
Sunlit
Object was in daylight at TLE epoch
Visualization TLE readout
Latitude-38.28425°
Longitude-18.4244°
Altitude488.314 km
Speed7.62 km/s
Apparent Right ascension14h 11m 34s
Apparent Declination-42° 15' 31"
Sunlit
Object is in daylight
Visualization observer readout
Local Sidereal Time04:07:06
Azimuth105.62° ESE
Elevation-68.208°
Doppler factor1
Orbital elements
Apogee altitude476.539 km
Perigee altitude474.413 km
Semi-major axis6,853.613 km
Eccentricity0.0001551
Inclination53.1601°
RAAN335.0009°
Arg. of periapsis102.2612°
True anomaly257.83883°
Mean anomaly257.8562°
Eccentric anomaly257.84751°
Mean motion3.82528 °/min
BSTAR-0.000092807
Orbital period94.11 mins
Loading maneuver chart data...
Loading historical data...
Loading historical data...
Loading historical data...
Loading historical data...
Loading historical data...
Loading historical data...
Loading historical data...

STARLINK-32185 Visibility forecast

Observer location: undefined°, undefined

Span
Click to sort rows by Start time (UTC) header in descending order
Start Az.
Max El. time (UTC)
Max El. Az.
Max El.
End time (UTC)
End Az.
5 mins2024-12-22 07:39:35.230Z329.135° NNW2024-12-22 07:41:35.230Z13.148° NNE32.069°2024-12-22 07:44:35.230Z99.173° ESE
4 mins2024-12-22 09:18:35.230Z259.093° W2024-12-22 09:19:35.230Z234.905° WSW21.771°2024-12-22 09:22:35.230Z176.881° S
5 mins2024-12-23 00:35:35.230Z190.83° SSW2024-12-23 00:37:35.230Z135.349° SSE31.66°2024-12-23 00:40:35.230Z67.351° ENE
5 mins2024-12-23 02:13:35.230Z281.523° WNW2024-12-23 02:15:35.230Z330.263° NNW25.75°2024-12-23 02:18:35.230Z30.536° NE
|